Regional Weather Roundup
Issued by NWS San Angelo, TX

Home | Current Version | Previous Version | Text Only | Print | Product List | Glossary On
Versions: 1 2 3 4 5 6 7 8 9 10 11 12 13 14 15 16 17 18 19 20 21 22 23 24 25 26 27 28 29 30 31 32 33 34 35 36 37 38 39 40 41 42 43 44 45 46 47 48 49 50
464
ASUS44 KSJT 230610
RWRSJT
WEST CENTRAL TEXAS REGIONAL WEATHER ROUNDUP
NATIONAL WEATHER SERVICE SAN ANGELO TX
100 AM CDT THU MAR 23 2017

NOTE: "FAIR" INDICATES FEW OR NO CLOUDS BELOW 12,000 FEET WITH NO
SIGNIFICANT WEATHER AND/OR OBSTRUCTIONS TO VISIBILITY.

TXZ049-054-064>066-071>073-076>078-098-099-113-114-127-128-139-140-
154-155-168>170-230700
...LOCATIONS ACROSS WEST CENTRAL TEXAS...

CITY           SKY/WX    TMP DP  RH WIND       PRES   REMARKS
SAN ANGELO     CLEAR     69  57  65 S10       30.00F
ABILENE        CLEAR     68  58  70 S20G30    30.00F
DYESS AFB      CLEAR     69  59  70 SW28G33   29.96F
JUNCTION       CLEAR     68  61  78 SE13      30.06F
SWEETWATER     CLEAR     68  58  71 SE28G35   29.99F
BROWNWOOD      CLOUDY    66  57  72 SE9       30.05F
COLEMAN        CLEAR     65  56  72 S8        30.04F
SONORA         CLEAR     66  59  77 S9        30.07F
OZONA            N/A     64  59  82 MISG      30.05S
BRADY          NOT AVBL
$$

TEXAS PANHANDLE/OKLAHOMA PANHANDLE

CITY           SKY/WX    TMP DP  RH WIND       PRES   REMARKS
AMARILLO       CLEAR     58  51  78 SE17      29.97F
BORGER         CLEAR     61  51  70 SE7       29.95F
CANADIAN       CLEAR     55  52  88 E3        29.96F
DALHART        CLEAR     58  49  72 S12       29.95F
DUMAS          CLEAR     53  46  78 SE13      29.95F
GUYMON         NOT AVBL
HEREFORD       CLEAR     55  50  82 E12       29.95F
PAMPA          CLEAR     61  53  74 S23G30    29.96S
PERRYTON       CLEAR     58  51  78 S13       29.94F
$$

SOUTHERN PANHANDLE/SOUTH PLAINS/ROLLING PLAINS

CITY           SKY/WX    TMP DP  RH WIND       PRES   REMARKS
LUBBOCK        PTCLDY    64  53  67 SE18      29.94F
SNYDER         CLEAR     67  57  71 S14G24    29.99F
CHILDRESS      CLEAR     63  54  72 SE12      29.96F
SEMINOLE       CLEAR     64  56  75 S18G24    29.96S
$$

PERMIAN BASIN

CITY           SKY/WX    TMP DP  RH WIND       PRES   REMARKS
MIDLAND        CLEAR     67  60  78 S20       29.97F
ODESSA           N/A     67  59  75 S17       29.97F
WINK             N/A    N/A N/A N/A MISG      29.91F
$$

FAR WEST/SOUTHWEST MOUNTAINS/TRANS PECOS

CITY           SKY/WX    TMP DP  RH WIND       PRES   REMARKS
ALPINE         CLEAR     65  54  67 S14G20    30.07S
DRYDEN           N/A     69  61  75 E12       29.97F
EL PASO        PTCLDY    76  12   8 SW13G21   29.94S
FORT STOCKTON  CLEAR     67  61  81 SE28G36   29.92F
GUADALUPE PASS CLEAR     66  47  50 NE9         N/A
MARFA          CLEAR     64  54  69 SE15      30.05F
PECOS          CLEAR     70  58  67 SE15      29.89F
$$

DALLAS/FORT WORTH METROPLEX

CITY           SKY/WX    TMP DP  RH WIND       PRES   REMARKS
DFW AIRPORT    CLEAR     69  61  75 SE10      30.04F
FTW MEACHAM    CLEAR     71  57  61 SE13      30.05F
DAL-EXECUTIVE  CLEAR     66  60  81 SE8       30.07S
GRAND PRAIRIE  CLEAR     69  58  66 SE8       30.08S
ADDISON        CLEAR     68  60  75 SE9       30.09S
MESQUITE       CLEAR     64  60  87 SE5       30.08S
LANCASTER      CLEAR     62  58  87 SE7       30.09S
$$

NORTH CENTRAL TEXAS

CITY           SKY/WX    TMP DP  RH WIND       PRES   REMARKS
SHRMAN/DENISON CLEAR     64  58  82 SE8       30.09S
GAINESVILLE    CLEAR     65  60  83 SE10      30.07F
BRIDGEPORT     CLEAR     67  57  69 SE7       30.06S
DENTON         CLEAR     67  62  84 SE10      30.04F
WAXAHACHIE     CLEAR     66  59  78 SE8       30.09F
GRANBURY       CLEAR     69  58  69 SE8       30.07S
$$

WESTERN NORTH TEXAS

CITY           SKY/WX    TMP DP  RH WIND       PRES   REMARKS
WICHITA FALLS  CLEAR     67  57  70 SE15      29.99F
VERNON         CLEAR     66  56  72 SE12      29.98S
BRECKENRIDGE   CLEAR     71  57  61 S13G20    30.00F
COMANCHE       CLEAR     65  59  82 S10       30.06S
$$

CENTRAL AND SOUTH CENTRAL TEXAS

CITY           SKY/WX    TMP DP  RH WIND       PRES   REMARKS
AUSTIN/BERGSTM CLOUDY    68  65  90 S15       30.10S
WACO           CLEAR     68  61  78 S14       30.08S
HILLSBORO      CLEAR     67  60  77 SE10      30.08S
TEMPLE         CLEAR     67  61  81 S15       30.10R
KILLEEN-GRAY   CLEAR     65  60  82 SE13      30.08R
FORT HOOD      CLEAR     66  62  86 S10       30.06S
GEORGETOWN     CLOUDY    70  61  73 S15       30.09F
LAGO VISTA     CLOUDY    67  63  85 MISG      30.11S
SAN MARCOS     CLOUDY    68  64  88 S15       30.11F
NEW BRAUNFELS  CLOUDY    68  64  87 S13       30.09F
RANDOLPH AFB   CLOUDY    66  66 100 S14       30.10S
SAN ANTONIO    MOCLDY    67  63  87 SE10      30.10F
STINSON        PTCLDY    68  64  87 SE10      30.08S
PLEASANTON     NOT AVBL
LA GRANGE      CLEAR     67  66  96 S6        30.10S
GIDDINGS       PTCLDY    66  64  93 S6        30.12S
$$

EAST TEXAS

CITY           SKY/WX    TMP DP  RH WIND       PRES   REMARKS
PARIS          CLEAR     61  48  63 E15       30.14S
CLARKSVILLE    NOT AVBL
TYLER          CLEAR     67  60  78 SE8       30.11F
LONGVIEW       CLEAR     64  60  87 SE6       30.13R
PALESTINE      CLEAR     67  63  85 SE5       30.13S
NACOGDOCHES    CLEAR     64  61  88 S3        30.13S
$$

TEXAS HILL COUNTRY AND EDWARDS PLATEAU

CITY           SKY/WX    TMP DP  RH WIND       PRES   REMARKS
LLANO          CLEAR     66  61  82 SE6       30.11S
HORSESHOE BAY  FAIR      66  62  85 SE7       30.09S
KERRVILLE      PTCLDY    64  62  92 SE9       30.10F
FREDERICKSBRG  PTCLDY    64  60  85 S6        30.09F
ROCKSPRINGS    PTCLDY    64  63  94 S14       30.09F
HONDO          CLEAR     69  64  84 SE12      30.09S
UVALDE         CLEAR     65  63  90 E7        30.08S
DEL RIO        CLEAR     70  61  73 E13G21    30.01S
$$

SOUTHEAST TEXAS

CITY           SKY/WX    TMP DP  RH WIND       PRES   REMARKS
COLLEGE STN    CLEAR     68  64  87 S12       30.12F
CALDWELL       NOT AVBL
CROCKETT       CLEAR     66  64  94 SE5       30.16S
BRENHAM        CLEAR     67  65  94 SE3       30.14S
HUNTSVILLE     CLEAR     68  63  84 S5        30.13F
CONROE         CLEAR     64  63  96 SE3       30.15F
HOUSTON BUSH   PTCLDY    69  65  86 S7        30.14F
HOUSTON HOBBY  PTCLDY    66  64  93 SE5       30.14F
PERLAND        CLEAR     69  65  86 SE3       30.16F
WHARTON        CLEAR     63  61  93 SE3       30.14F
$$

THE UPPER TEXAS COAST

CITY           SKY/WX    TMP DP  RH WIND       PRES   REMARKS
ORANGE         CLEAR     67  66  95 S5        30.19R
PORT ARTHUR    FOG       64  63  96 S3        30.16S VSB 1
GALVESTON      PTCLDY    72  67  84 S10       30.16F
ANGLETON       PTCLDY    68  65  90 S8        30.14F
BAY CITY       CLOUDY    66  66 100 SE3       30.14S
$$

TEXAS COASTAL BEND, RIO GRANDE PLAINS DEEP SOUTH TEXAS

CITY           SKY/WX    TMP DP  RH WIND       PRES   REMARKS
VICTORIA       CLEAR     65  63  93 SE7       30.12F
BEEVILLE       FAIR     N/A N/A N/A SE6       30.10F
ROCKPORT       CLEAR     71  67  87 SE9       30.11F
PORT ARANSAS   CLEAR     69  68  94 SE8       30.11S
PORT LAVACA    CLEAR     66  66 100 CALM      30.13S
CORPUS CHRISTI CLEAR     68  67  96 SE12      30.10F
KINGSVILLE NAS CLEAR     68  68 100 SE8       30.09F
COTULLA        CLEAR     70  63  78 SE14      30.06S
LAREDO         CLEAR     71  62  73 SE14      30.06S
BROWNSVILLE    CLEAR     69  66  90 SE6       30.11R
PORT ISABEL    CLEAR     71  66  84 SE10      30.10S
HEBBRONVILLE   MOCLDY    66  62  86 S8        30.09F
MCALLEN        PTCLDY    70  65  84 SE8       30.09F
WESLACO        PTCLDY    69  65  87 S9        30.09S
FALFURRIAS     PTCLDY    68  65  91 SE8       30.09S
EDINBURG       MOCLDY    68  64  88 SE5       30.10S
$$




USA.gov is the U.S. government's official web portal to all federal, state and local government web resources and services.